Current weather by "City, St" or "zip code"  
 

Current Conditions: Cairo Regional Airport, IL

Fair


37.0 F

Last Updated on Oct 31 2020, 3:55 am CDT
Humidity: 97%
Wind Speed: mph
Barometer 30.31 in
Dewpoint: 35.8 F
Visibility: 10.00 mi
Precip: --
Heat Index: NA
Wind Chill: NA
Current conditions at:

Cairo Regional Airport, IL (KCIR)

Lat: 37.06388 Lon: 89.2232

Local Radar Image active severe weather and emergency alerts image image weather storm and storm spotter reports image weather observation monitoring service image
Local
Radar
Active
Alerts
Storm Reports Obs
Monitoring

Sign-up For Email & Text Message Weather Alert Notification Services



Advertise Here

Observation History for Cairo Regional Airport, IL


Time Wind
(mph)
Vis
(mi)
Weather Precip (in) Temperature (F) Relative
Humidity
Wind
Chill
(F)
Heat
Index
(F)
Pressure
Air Dwpt altimeter
(in)
sea level
(mb)
Rmks
3:55 am CDT 10.00 Fair -- 37.0 35.8 97% NA NA 30.31 M
2:55 am CDT 10.00 Fair -- 38.0 37.4 97% NA NA 30.31 M
1:55 am CDT 10.00 Fair -- 38.0 37.0 97% NA NA 30.32 M
1:35 am CDT 10.00 Fair -- 38.0 37.2 97% NA NA 30.32 M
12:55 am CDT 10.00 Fair -- 39.0 38.1 97% NA NA 30.32 M
11:55 pm CDT 10.00 Fair -- 39.0 39.0 99% NA NA 30.31 M
10:55 pm CDT 10.00 Fair -- 40.0 39.4 99% NA NA 30.32 M
9:55 pm CDT 10.00 Fair -- 41.0 40.1 98% NA NA 30.31 M
8:55 pm CDT 10.00 Fair -- 42.0 40.5 96% NA NA 30.30 M
7:55 pm CDT 10.00 Fair -- 43.0 41.2 95% NA NA 30.30 M
6:55 pm CDT 10.00 Fair -- 47.0 41.4 82% NA NA 30.28 M
5:55 pm CDT 10.00 Fair -- 52.0 36.3 56% NA NA 30.28 M
4:55 pm CDT 10.00 Fair -- 54.0 36.3 51% NA NA 30.28 M
4:35 pm CDT 10.00 Fair -- 54.0 36.1 51% NA NA 30.28 M
3:55 pm CDT 10.00 Fair -- 54.0 36.5 51% NA NA 30.28 M
2:55 pm CDT 10.00 Fair -- 54.0 36.0 51% NA NA 30.29 M
1:55 pm CDT 10.00 Fair -- 52.0 34.5 52% NA NA 30.30 M
1:35 pm CDT 10.00 Fair -- 52.0 34.7 52% NA NA 30.31 M
12:55 pm CDT 10.00 Fair -- 51.0 35.2 55% NA NA 30.33 M
11:55 am CDT 10.00 Fair -- 49.0 35.1 59% NA NA 30.35 M
10:55 am CDT 10.00 Fair -- 46.0 36.7 69% NA NA 30.35 M
9:55 am CDT 10.00 Fair -- 44.0 37.4 79% NA NA 30.34 M
8:55 am CDT 10.00 Fair -- 41.0 36.0 83% NA NA 30.33 M
7:55 am CDT 10.00 Fair -- 37.0 34.9 91% NA NA 30.29 M

Regional Weather Observation


Cape Girardeau, Cape Girardeau Regional Airport, MO (KCGI)

Fair
39.0 F

Southern Illinois Airport, IL (KMDH)

Fog/Mist
34.0 F

Marion - Williamson County Regional Airport, IL (KMWA)

Fair
35.0 F

Paducah, Barkley Regional Airport, KY (KPAH)

Fair
37.0 F

Metropolis Municipal Airport, IL (KM30)

Fair
79.0 F

Harrisburg-Raleigh Airport, IL (KHSB)

Fair
34.0 F